This is the latest recevied weather packets stored in our database for station/object KA1BMF-13. If no packets are shown the sender has not sent any weather packets the latest 10 day(s).
| Time | Temp. | Humidity | Pressure | Rain* | Wind** | Luminosity | Snow |
|---|---|---|---|---|---|---|---|
| 1788455417 | 24.44° C | 83% | 1013.1 hPa | 0 mm | - | 374 W/m² | - |
| 1788454818 | 24.44° C | 85% | 1013 hPa | 0 mm | - | 420 W/m² | - |
| 1788454218 | 24.44° C | 85% | 1013.1 hPa | 0 mm | - | 240 W/m² | - |
| 1788453618 | 23.89° C | 88% | 1013.1 hPa | 0 mm | - | 272 W/m² | - |
| 1788453018 | 23.89° C | 87% | 1013.3 hPa | 0 mm | - | 285 W/m² | - |
| 1788452418 | 23.33° C | 87% | 1013.5 hPa | 0 mm | - | 372 W/m² | - |
| 1788451819 | 23.89° C | 87% | 1013.7 hPa | 0 mm | - | 194 W/m² | - |
| 1788451219 | 23.89° C | 88% | 1013.6 hPa | 0 mm | - | 252 W/m² | - |
| 1788450618 | 23.33° C | 90% | 1013.6 hPa | 0 mm | - | 394 W/m² | - |
| 1788450026 | 23.33° C | 91% | 1013.8 hPa | 0 mm | - | 377 W/m² | - |
| 1788449427 | 23.33° C | 92% | 1013.9 hPa | 0 mm | - | 124 W/m² | - |
| 1788448827 | 22.78° C | 92% | 1014 hPa | 0 mm | - | 153 W/m² | - |
| 1788448227 | 22.78° C | 92% | 1014.1 hPa | 0 mm | - | 178 W/m² | - |
| 1788447627 | 22.78° C | 93% | 1014 hPa | 0 mm | - | 272 W/m² | - |
| 1788447027 | 22.22° C | 93% | 1013.9 hPa | 0 mm | - | 456 W/m² | - |
| 1788446427 | 22.22° C | 95% | 1013.9 hPa | 0 mm | - | 335 W/m² | - |
| 1788445817 | 22.22° C | 96% | 1014 hPa | 0 mm | - | 345 W/m² | - |
| 1788445228 | 21.67° C | 98% | 1014.1 hPa | 0 mm | - | 276 W/m² | - |
| 1788444628 | 21.67° C | 98% | 1014.3 hPa | 0 mm | - | 227 W/m² | - |
| 1788444028 | 21.67° C | 99% | 1014.3 hPa | 0 mm | - | 168 W/m² | - |
| 1788443428 | 21.67° C | 99% | 1014.3 hPa | 0 mm | - | 178 W/m² | - |
| 1788442828 | 21.11° C | 100% | 1014.4 hPa | 0 mm | - | 149 W/m² | - |
| 1788442228 | 21.11° C | 100% | 1014.4 hPa | 0 mm | - | 170 W/m² | - |
| 1788441628 | 21.11° C | 100% | 1014.7 hPa | 0 mm | - | 222 W/m² | - |
| 1788441015 | 21.11° C | 100% | 1014.7 hPa | 0 mm | - | 151 W/m² | - |
* Rain latest hour (hover to see other rain measurements)
** Current wind speed in m/s (hover to see current wind gust speed)